Inquirer Daily News

Weather

Get conditions and forecasts for any City, State, ZIP code or Country:  
Trenton, NJ
on Thursday, January 10, 2013

Thursday
Previous Day Next Day
Daily Summary
 ActualAverageRecord
Temperature
Mean Temperature °F 31°F  
Max Temperature 50°F 39°F 62°F (1950)
Min Temperature 34°F 23°F -2°F (1875)
Degree Days
Heating Degree Days 23 34  
Month to date heating degree days 295 339  
Since 1 July heating degree days 2053 2234  
Cooling Degree Days 0 0  
Month to date cooling degree days 0 0  
Year to date cooling degree days 0 0  
Moisture
Dew Point 25°F   
Average Humidity 49    
Maximum Humidity 59    
Minimum Humidity 39    
Precipitation
Precipitation 0.00 in 0.10 in 1.20 in (1983)
Month to date precipitation 0.01 1.14  
Year to date precipitation 0.01 1.14  
Wind
Wind Speed 7 mph   
Max Wind Speed 15 mph   
Max Gust Speed 23 mph   
Visibility 10 miles   
Events     

Key: T is trace of precipitation, MM is missing value
Source: NWS Daily Summary
Time(EST)TemperatureDew PointHumidity Pressure Visibility Wind DirectionWind SpeedGust SpeedPrecipitationEvents Conditions
12:53 AM 46.0°F 28.9°F 51% 30.29 in 10.0 miles WNW 11.5 mph 18.4 mph N/A   Clear
1:53 AM 45.0°F 27.0°F 49% 30.33 in 10.0 miles WNW 9.2 mph 18.4 mph N/A   Clear
2:53 AM 43.0°F 27.0°F 53% 30.35 in 10.0 miles NW 6.9 mph - N/A   Clear
3:53 AM 42.1°F 26.1°F 53% 30.36 in 10.0 miles WNW 5.8 mph - N/A   Clear
5:53 AM 39.9°F 25.0°F 55% 30.39 in 10.0 miles NNW 5.8 mph - N/A   Clear
6:53 AM 39.0°F 24.1°F 55% 30.43 in 10.0 miles NW 5.8 mph - N/A   Clear
7:53 AM 39.0°F 25.0°F 57% 30.46 in 10.0 miles WNW 3.5 mph - N/A   Clear
8:53 AM 41.0°F 25.0°F 53% 30.49 in 10.0 miles NNW 8.1 mph - N/A   Clear
9:53 AM 43.0°F 26.1°F 51% 30.50 in 10.0 miles North 13.8 mph 18.4 mph N/A   Clear
10:53 AM 46.0°F 26.1°F 46% 30.51 in 10.0 miles North 9.2 mph - N/A   Clear
11:53 AM 46.9°F 25.0°F 42% 30.48 in 10.0 miles NNW 9.2 mph - N/A   Clear
12:53 PM 48.0°F 25.0°F 41% 30.47 in 10.0 miles NNE 8.1 mph - N/A   Clear
1:53 PM 48.9°F 24.1°F 38% 30.47 in 10.0 miles NW 10.4 mph - N/A   Clear
2:53 PM 48.9°F 25.0°F 39% 30.48 in 10.0 miles NNW 8.1 mph - N/A   Clear
3:53 PM 48.9°F 24.1°F 38% 30.48 in 10.0 miles North 6.9 mph - N/A   Clear
4:53 PM 46.0°F 24.1°F 42% 30.50 in 10.0 miles NNW 4.6 mph - N/A   Clear
5:53 PM 43.0°F 24.1°F 47% 30.51 in 10.0 miles Calm Calm - N/A   Clear
6:53 PM 42.1°F 24.1°F 49% 30.51 in 10.0 miles NE 3.5 mph - N/A   Clear
7:53 PM 41.0°F 24.1°F 51% 30.49 in 10.0 miles NNE 8.1 mph - N/A   Clear
8:53 PM 41.0°F 25.0°F 53% 30.51 in 10.0 miles NNE 4.6 mph - N/A   Clear
9:53 PM 39.9°F 25.0°F 55% 30.52 in 10.0 miles Calm Calm - N/A   Clear
11:53 PM 37.0°F 25.0°F 62% 30.51 in 10.0 miles NE 3.5 mph - N/A   Clear
Astronomy
Sunrise:07:21 AM (EST) Moon Rise:05:58 AM (EST)1/10
Sunset:04:52 PM (EST) Moon Set:03:57 PM (EST)1/10
Moon Phase
Jan. 10 Jan. 11 Jan. 18 Jan. 26 Feb. 03

Copyright © 2014 The Weather Underground, Inc.